Regional Weather Roundup
Issued by NWS

Home | Current Version | Previous Version | Text Only | Print | Product List | Glossary On
Versions: 1 2 3 4 5 6 7 8 9 10 11 12 13 14 15 16 17 18 19 20 21 22 23 24 25 26 27 28 29 30 31 32 33 34 35 36 37 38 39 40 41 42 43 44 45 46 47 48 49 50
000
ASUS44 KMEG 010010
RWRTN
TENNESSEE HOURLY STATE WEATHER ROUNDUP
NATIONAL WEATHER SERVICE MEMPHIS TN
700 PM CDT SUN APR 30 2017

TNZ002-004-019-021-049-052-054-088>092-010100-
WEST TENNESSEE

CITY           SKY/WX    TMP DP  RH WIND       PRES   REMARKS
MEMPHIS INTL   CLOUDY    65  61  87 SW15G28   29.70R
NWS MEMPHIS      N/A     69 N/A N/A MISG        N/A
JACKSON        CLOUDY    71  65  81 S12G22    29.70F
SOMERVILLE     CLOUDY    70  66  88 S12G17    29.67F
UNION CITY     CLOUDY    70  66  88 S18G30    29.64F
BOLIVAR        CLOUDY    70  64  83 SE16G24   29.69F
HUNTINGDON     CLOUDY    72  64  78 S17G29    29.69F
LEXINGTON      CLOUDY    70  64  83 S12       29.74F
SAVANNAH       CLOUDY    70  64  83 S14       29.76S
$$

TNZ008-025-027-028-033-062-065-066-010100-
NORTH MIDDLE TENNESSEE

CITY           SKY/WX    TMP DP  RH WIND       PRES   REMARKS
NASHVILLE      CLOUDY    68  63  84 S17       29.77F
PORTLAND       CLEAR     66  64  94 S14G22    29.74F
CLARKSVILLE    CLOUDY    69  62  78 S10       29.75R
SMYRNA         MOCLDY    69  63  81 S12G18    29.79F
COOKEVILLE     PTCLDY    68  63  83 S7G13     29.88F
GALLATIN       PTCLDY    68  64  88 SE10      29.80F
CROSSVILLE     CLOUDY    64  62  93 SE6       29.97F
$$

TNZ061-075-076-078-094-096-097-010100-
SOUTH MIDDLE TENNESSEE

CITY           SKY/WX    TMP DP  RH WIND       PRES   REMARKS
FAYETTEVILLE     N/A     66  63  88 SE21G29   29.81F
TULLAHOMA      PTCLDY    66  63  88 SE14      29.89F
WINCHESTER     CLOUDY    66  63  88 S17       29.91S
MCMINNVILLE    MOCLDY    70  66  88 VRB5      29.88F
COLUMBIA       MOCLDY   N/A N/A N/A S9        29.77S
SHELBYVILLE    PTCLDY    70  64  83 SE18      29.80F
$$

TNZ017-018-042-046-047-010100-
NORTHEAST TENNESSEE

CITY           SKY/WX    TMP DP  RH WIND       PRES   REMARKS
TRI CITIES     CLOUDY    77  55  46 S7        30.01S
ELIZABETHTON   CLOUDY    77  57  50 CALM      30.02F
$$

TNZ012-013-036-069-073-074-010100-
CENTRAL EAST TENNESSEE

CITY           SKY/WX    TMP DP  RH WIND       PRES   REMARKS
KNOXVILLE      CLOUDY    80  56  43 S15G23    29.93F
OAK RIDGE      CLOUDY    81  56  42 S8        29.94F
DOWNTOWN KNOXV PTCLDY    81  57  44 SW6       29.94S
GATLINBURG     CLEAR     81  54  39 S7        29.94F
MORRISTOWN     CLEAR     79  57  47 S6        29.96F
JACKSBORO      PTCLDY    77  59  53 S7        29.96F
$$

TNZ083-085-099-010100-
SOUTHEAST TENNESSEE

CITY           SKY/WX    TMP DP  RH WIND       PRES   REMARKS
CHATTANOOGA    RAIN      67  64  90 VRB5      29.99R FOG
$$

SKY/WX REPORTED AS FAIR MEANS FEW OR NO CLOUDS BELOW
12 THOUSAND FEET.




USA.gov is the U.S. government's official web portal to all federal, state and local government web resources and services.